When you browse on this site, cookies collect data to enhance your experience and personalize the content and advertising you see.
Visit our Privacy Policy to learn more. By continuing to use the site, you agree to this use of cookies and data.

Meteo pe oră la Alicun

Astăzi, 6 August, Joi

Timp Temperatura Precipitaţii Vânt Presiune Umiditate
00:00 +26°C° 0 mm 1 m/s 697 mmHg 50%
01:00 +25°C° 0 mm 1 m/s 696 mmHg 52%
02:00 +25°C° 0 mm 1 m/s 696 mmHg 54%
03:00 +24°C° 0 mm 1 m/s 696 mmHg 56%
04:00 +24°C° 0 mm 1 m/s 696 mmHg 56%
05:00 +24°C° 0 mm 2 m/s 697 mmHg 55%
06:00 +25°C° 0 mm 2 m/s 697 mmHg 52%
07:00 +27°C° 0 mm 2 m/s 698 mmHg 45%
08:00 +30°C° 0 mm 3 m/s 698 mmHg 38%
09:00 +33°C° 0 mm 4 m/s 698 mmHg 30%
10:00 +35°C° 0 mm 4 m/s 699 mmHg 27%
11:00 +36°C° 0 mm 4 m/s 699 mmHg 24%
12:00 +38°C° 0 mm 4 m/s 699 mmHg 20%
13:00 +39°C° 0 mm 5 m/s 699 mmHg 19%
14:00 +40°C° 0 mm 5 m/s 699 mmHg 18%
15:00 +40°C° 0 mm 5 m/s 698 mmHg 17%
16:00 +40°C° 0 mm 4 m/s 698 mmHg 18%
17:00 +38°C° 0 mm 4 m/s 698 mmHg 20%
18:00 +37°C° 0 mm 4 m/s 698 mmHg 21%
19:00 +35°C° 0 mm 3 m/s 698 mmHg 27%
20:00 +31°C° 0 mm 3 m/s 698 mmHg 33%
21:00 +28°C° 0 mm 2 m/s 698 mmHg 39%
22:00 +27°C° 0 mm 2 m/s 698 mmHg 43%
23:00 +26°C° 0 mm 2 m/s 699 mmHg 46%

Mâine, 7 August, Vineri

Timp Temperatura Precipitaţii Vânt Presiune Umiditate
00:00 +26°C° 0 mm 2 m/s 699 mmHg 50%
01:00 +25°C° 0 mm 2 m/s 698 mmHg 51%
02:00 +25°C° 0 mm 2 m/s 698 mmHg 52%
03:00 +24°C° 0 mm 2 m/s 698 mmHg 53%
04:00 +24°C° 0 mm 1 m/s 698 mmHg 50%
05:00 +25°C° 0 mm 1 m/s 698 mmHg 47%
06:00 +25°C° 0 mm 1 m/s 698 mmHg 43%
07:00 +28°C° 0 mm 2 m/s 699 mmHg 36%
08:00 +31°C° 0 mm 2 m/s 699 mmHg 28%
09:00 +35°C° 0 mm 2 m/s 700 mmHg 20%
10:00 +36°C° 0 mm 3 m/s 700 mmHg 18%
11:00 +38°C° 0 mm 3 m/s 701 mmHg 16%
12:00 +40°C° 0 mm 3 m/s 701 mmHg 14%
13:00 +41°C° 0 mm 4 m/s 701 mmHg 13%
14:00 +42°C° 0 mm 4 m/s 700 mmHg 13%
15:00 +42°C° 0 mm 4 m/s 700 mmHg 13%
16:00 +41°C° 0 mm 4 m/s 700 mmHg 14%
17:00 +41°C° 0 mm 4 m/s 700 mmHg 16%
18:00 +40°C° 0 mm 4 m/s 700 mmHg 17%
19:00 +36°C° 0 mm 3 m/s 700 mmHg 22%
20:00 +32°C° 0 mm 2 m/s 700 mmHg 26%
21:00 +29°C° 0 mm 1 m/s 699 mmHg 31%
22:00 +28°C° 0 mm 1 m/s 700 mmHg 32%
23:00 +27°C° 0 mm 1 m/s 700 mmHg 34%

Poimâine, 8 August, Sâmbătă

Timp Temperatura Precipitaţii Vânt Presiune Umiditate
00:00 +26°C° 0 mm 1 m/s 700 mmHg 35%
01:00 +25°C° 0 mm 1 m/s 700 mmHg 39%
02:00 +24°C° 0 mm 1 m/s 699 mmHg 42%
03:00 +23°C° 0 mm 1 m/s 699 mmHg 46%
04:00 +24°C° 0 mm 1 m/s 699 mmHg 46%
05:00 +24°C° 0 mm 1 m/s 699 mmHg 46%
06:00 +22°C° 0 mm 0 m/s 699 mmHg 46%
07:00 +27°C° 0 mm 1 m/s 700 mmHg 38%
08:00 +30°C° 0 mm 1 m/s 700 mmHg 30%
09:00 +33°C° 0 mm 1 m/s 701 mmHg 21%
10:00 +34°C° 0 mm 1 m/s 701 mmHg 19%
11:00 +36°C° 0 mm 1 m/s 701 mmHg 17%
12:00 +39°C° 0 mm 1 m/s 701 mmHg 15%
13:00 +39°C° 0 mm 2 m/s 701 mmHg 15%
14:00 +39°C° 0 mm 2 m/s 700 mmHg 14%
15:00 +39°C° 0 mm 2 m/s 700 mmHg 14%
16:00 +38°C° 0.2 mm 3 m/s 700 mmHg 17%
17:00 +37°C° 0.2 mm 4 m/s 700 mmHg 19%
18:00 +36°C° 0.2 mm 4 m/s 699 mmHg 21%
19:00 +34°C° 0.2 mm 3 m/s 699 mmHg 25%
20:00 +31°C° 0.2 mm 2 m/s 699 mmHg 28%
21:00 +29°C° 0.2 mm 1 m/s 699 mmHg 31%
22:00 +28°C° 0 mm 1 m/s 699 mmHg 32%
23:00 +27°C° 0 mm 1 m/s 699 mmHg 33%

9 August, Duminică

Timp Temperatura Precipitaţii Vânt Presiune Umiditate
00:00 +26°C° 0 mm 1 m/s 698 mmHg 34%
01:00 +26°C° 0 mm 1 m/s 698 mmHg 35%
02:00 +25°C° 0 mm 1 m/s 697 mmHg 36%
03:00 +24°C° 0 mm 1 m/s 697 mmHg 37%
04:00 +24°C° 0 mm 1 m/s 697 mmHg 36%
05:00 +25°C° 0 mm 1 m/s 697 mmHg 36%
06:00 +25°C° 0 mm 1 m/s 697 mmHg 35%
07:00 +28°C° 0 mm 1 m/s 698 mmHg 30%
08:00 +31°C° 0 mm 1 m/s 698 mmHg 24%
09:00 +34°C° 0 mm 1 m/s 699 mmHg 19%
10:00 +36°C° 0 mm 2 m/s 699 mmHg 17%
11:00 +38°C° 0 mm 2 m/s 699 mmHg 15%
12:00 +40°C° 0 mm 2 m/s 699 mmHg 14%
13:00 +40°C° 0 mm 3 m/s 699 mmHg 12%
14:00 +42°C° 0 mm 4 m/s 698 mmHg 11%
15:00 +42°C° 0 mm 6 m/s 698 mmHg 10%
16:00 +41°C° 0 mm 6 m/s 698 mmHg 11%
17:00 +40°C° 0 mm 5 m/s 697 mmHg 11%
18:00 +40°C° 0 mm 5 m/s 697 mmHg 12%
19:00 +36°C° 0 mm 4 m/s 697 mmHg 16%
20:00 +33°C° 0 mm 3 m/s 697 mmHg 21%
21:00 +29°C° 0 mm 1 m/s 697 mmHg 25%
22:00 +28°C° 0 mm 1 m/s 697 mmHg 28%
23:00 +27°C° 0 mm 1 m/s 696 mmHg 31%

10 August, Luni

Timp Temperatura Precipitaţii Vânt Presiune Umiditate
00:00 +26°C° 0 mm 1 m/s 696 mmHg 34%
01:00 +26°C° 0 mm 1 m/s 696 mmHg 36%
02:00 +25°C° 0 mm 1 m/s 696 mmHg 38%
03:00 +24°C° 0 mm 1 m/s 695 mmHg 41%
04:00 +22°C° 0 mm 0 m/s 695 mmHg 42%
05:00 +22°C° 0 mm 0 m/s 695 mmHg 43%
06:00 +22°C° 0 mm 0 m/s 696 mmHg 44%
07:00 +25°C° 0 mm 0 m/s 696 mmHg 37%
08:00 +30°C° 0 mm 1 m/s 697 mmHg 30%
09:00 +33°C° 0 mm 1 m/s 697 mmHg 23%
10:00 +36°C° 0 mm 2 m/s 697 mmHg 20%
11:00 +38°C° 0 mm 4 m/s 698 mmHg 16%
12:00 +41°C° 0 mm 5 m/s 698 mmHg 13%
13:00 +41°C° 0 mm 5 m/s 697 mmHg 12%
14:00 +41°C° 0 mm 6 m/s 697 mmHg 12%
15:00 +41°C° 0 mm 6 m/s 697 mmHg 11%
16:00 +40°C° 0 mm 6 m/s 696 mmHg 13%
17:00 +39°C° 0 mm 6 m/s 696 mmHg 14%
18:00 +37°C° 0 mm 5 m/s 696 mmHg 16%
19:00 +36°C° 0 mm 4 m/s 696 mmHg 18%
20:00 +34°C° 0 mm 3 m/s 696 mmHg 20%
21:00 +31°C° 0 mm 1 m/s 697 mmHg 22%
22:00 +30°C° 0.1 mm 1 m/s 697 mmHg 26%
23:00 +28°C° 0.1 mm 1 m/s 697 mmHg 30%

11 August, Marţi

Timp Temperatura Precipitaţii Vânt Presiune Umiditate
00:00 +27°C° 0.1 mm 1 m/s 696 mmHg 33%
01:00 +26°C° 0.1 mm 1 m/s 696 mmHg 36%
02:00 +26°C° 0.1 mm 1 m/s 696 mmHg 38%
03:00 +23°C° 0.1 mm 0 m/s 695 mmHg 40%
04:00 +23°C° 0 mm 0 m/s 695 mmHg 41%
05:00 +23°C° 0 mm 0 m/s 695 mmHg 42%
06:00 +22°C° 0 mm 0 m/s 696 mmHg 43%
07:00 +25°C° 0 mm 0 m/s 696 mmHg 37%
08:00 +30°C° 0 mm 1 m/s 697 mmHg 32%
09:00 +32°C° 0 mm 1 m/s 697 mmHg 26%
10:00 +35°C° 0 mm 2 m/s 697 mmHg 24%
11:00 +37°C° 0 mm 3 m/s 698 mmHg 23%
12:00 +38°C° 0 mm 4 m/s 698 mmHg 21%
13:00 +38°C° 0 mm 4 m/s 697 mmHg 22%
14:00 +39°C° 0 mm 5 m/s 697 mmHg 23%
15:00 +37°C° 0 mm 5 m/s 696 mmHg 24%
16:00 +37°C° 0 mm 5 m/s 696 mmHg 25%
17:00 +36°C° 0 mm 5 m/s 696 mmHg 26%
18:00 +36°C° 0 mm 4 m/s 696 mmHg 27%
19:00 +34°C° 0 mm 4 m/s 696 mmHg 32%
20:00 +31°C° 0 mm 3 m/s 696 mmHg 36%
21:00 +29°C° 0 mm 2 m/s 696 mmHg 41%
22:00 +28°C° 0 mm 2 m/s 696 mmHg 42%
23:00 +27°C° 0 mm 2 m/s 696 mmHg 44%
Arată mai mult